Terug naar catalogus

STARLINK-30509

ActiefCommunicatieVLEO
NORAD 57977·PAYLOAD·🇺🇸 United States

Gelanceerd Sep 30, 2023 vanaf Cape Canaveral Space Force Station

Loading…

Volgende Passages (komende 24 uur)

TLE

VersSource: CelesTrak SupGP

Epoch: Sep 15, 2026, 02:22 UTC

1 57977C 23151P   26258.09909722 -.00044069  00000+0 -15967-2 0  2580
2 57977  43.0024   0.9907 0001501 263.7184  10.1655 15.27589498    10

Volg STARLINK-30509 in realtime met AllMySat

Download on the App Store